Location: Presov
(49.0000°N, 21.2500°E)
Time: 09:53:30
(UTC+02:00)

Tiros 1 despin weight - All Passes

Search period start: 20 April 2021 00:00
Search period end: 30 April 2021 00:00
Orbit: 593 x 641 km, 48.2° (Epoch: 19 April)

Date Brightness Start Highest point End Pass type
(mag) Time Alt. Az. Time Alt. Az. Time Alt. Az.
20 Apr - 05:49:16 10° SSW 05:53:19 31° SSE 05:57:19 10° E daylight
20 Apr - 07:29:57 10° WSW 07:34:30 71° SSE 07:38:59 10° E daylight
20 Apr - 09:11:28 10° W 09:16:00 77° S 09:20:27 10° ESE daylight
20 Apr - 10:53:06 10° W 10:57:16 38° SSW 11:01:21 10° SE daylight
20 Apr - 12:37:05 10° SW 12:37:51 10° SW 12:38:39 10° SW daylight
21 Apr - 04:26:05 10° S 04:28:38 15° SE 04:31:12 10° ESE visible
21 Apr - 06:05:03 10° SW 06:09:26 46° SSE 06:13:47 10° E daylight
21 Apr - 07:46:14 10° W 07:50:49 81° S 07:55:19 10° E daylight
21 Apr - 09:27:48 10° W 09:32:17 64° SSW 09:36:42 10° ESE daylight
21 Apr - 11:09:41 10° W 11:13:19 25° SW 11:16:56 10° SSE daylight
22 Apr - 04:40:53 10° SSW 04:44:36 24° SE 04:48:17 10° E visible
22 Apr - 06:21:07 10° WSW 06:25:40 63° SSE 06:30:08 10° E daylight
22 Apr - 08:02:34 10° W 08:07:08 81° S 08:11:38 10° E daylight
22 Apr - 09:44:10 10° W 09:48:31 47° SSW 09:52:47 10° SE daylight
22 Apr - 11:26:44 10° WSW 11:29:17 15° SW 11:31:49 10° S daylight
23 Apr - 03:19:12 10° SE 03:20:03 10° SE 03:20:52 10° SE visible
23 Apr - 04:56:26 10° SW 05:00:41 37° SSE 05:04:53 10° E visible
23 Apr - 06:37:21 10° WSW 06:41:57 76° S 06:46:28 10° E daylight
23 Apr - 08:18:54 10° W 08:23:27 73° S 08:27:56 10° ESE daylight
23 Apr - 10:00:37 10° W 10:04:38 32° SSW 10:08:36 10° SSE daylight
24 Apr - 03:32:45 10° S 03:35:56 18° SE 03:39:06 10° E visible
24 Apr - 05:12:20 10° SW 05:16:50 53° SSE 05:21:17 10° E daylight
24 Apr - 06:53:40 10° W 06:58:16 82° S 07:02:48 10° E daylight
24 Apr - 08:35:15 10° W 08:39:43 57° SSW 08:44:07 10° ESE daylight
24 Apr - 10:17:19 10° W 10:20:40 20° SW 10:23:57 10° S daylight
25 Apr - 03:47:55 10° SSW 03:51:56 29° SSE 03:55:54 10° E visible
25 Apr - 05:28:29 10° WSW 05:33:05 69° SSE 05:37:37 10° E daylight
25 Apr - 07:10:00 10° W 07:14:36 79° S 07:19:07 10° E daylight
25 Apr - 08:51:38 10° W 08:55:54 41° SSW 09:00:06 10° SE daylight
25 Apr - 10:34:52 10° WSW 10:36:33 12° SW 10:38:15 10° SSW daylight
26 Apr - 02:25:01 10° SSE 02:27:17 14° SE 02:29:33 10° ESE visible
26 Apr - 04:03:39 10° SW 04:08:02 43° SSE 04:12:23 10° E visible
26 Apr - 05:44:46 10° W 05:49:23 80° S 05:53:57 10° E daylight
26 Apr - 07:26:20 10° W 07:30:53 67° SSW 07:35:21 10° ESE daylight
26 Apr - 09:08:09 10° W 09:11:59 27° SSW 09:15:45 10° SSE daylight
27 Apr - 02:39:36 10° SSW 02:43:13 23° SE 02:46:49 10° E visible
27 Apr - 04:19:40 10° WSW 04:24:14 60° SSE 04:28:45 10° E visible
27 Apr - 06:01:05 10° W 06:05:43 82° S 06:10:16 10° E daylight
27 Apr - 07:42:41 10° W 07:47:07 51° SSW 07:51:29 10° SE daylight
27 Apr - 09:25:03 10° W 09:27:57 17° SW 09:30:49 10° S daylight
28 Apr - 02:55:03 10° SW 02:59:15 35° SSE 03:03:27 10° E visible
28 Apr - 04:35:52 10° WSW 04:40:31 74° S 04:45:06 10° E visible
28 Apr - 06:17:25 10° W 06:22:02 75° S 06:26:34 10° ESE daylight
28 Apr - 07:59:06 10° W 08:03:16 35° SSW 08:07:21 10° SE daylight
29 Apr - 01:31:33 10° S 01:34:33 17° SE 01:37:32 10° E visible
29 Apr - 03:10:54 10° SW 03:15:24 50° SSE 03:19:53 10° E visible
29 Apr - 04:52:10 10° W 04:56:49 82° S 05:01:25 10° E daylight
29 Apr - 06:33:45 10° W 06:38:18 61° SSW 06:42:46 10° ESE daylight
29 Apr - 08:15:44 10° W 08:19:18 23° SW 08:22:49 10° SSE daylight
